星链-36051(STARLINK-36051)

导读 | 豆包AI

STARLINK-36051是美国SpaceX公司星链星座的一颗低轨互联网通信卫星,于2025年12月1日发射入轨。星链项目计划打造由数万颗卫星组成的全球卫星互联网星座,为地面基础设施缺失的偏远地区提供高速、低延迟的宽带服务。该卫星运行于近地轨道,将助力扩展星链全球覆盖能力,同时星链的大规模部署也引发了关于太空交通、天文观测等方面的争议。

基本信息
目录编号:
66793
目录名称:
STARLINK-36051
国际标识:
2025-278C
轨道中心:
EARTH
卫星名称:
星链-36051
卫星全名:
星链-36051(STARLINK-36051)
卫星状态:
在轨 (已飞行124 天)
发射日期:
2025-12-01 UTC
国别 :
美国 (US)
星等 :
--
轨道信息
数据来源 国际轨道数据
星历时间: 2026-04-04T00:57:06+0800
11小时前
查看轨道信息
半长轴: 6861.152km
偏心率: 0.000129
轨道倾角: 43.005°
近地点辐角 279.446°
升交点赤经 333.210°
平近点角 80.625°
近地点: 482.129km
远地点: 483.901km
周期: 94.266分钟
每日圈数: 15.275915
详细信息
固有亮度:
5
最大亮度:
2.5
卫星平台:
Starlink V1.0
覆盖范围:
全球
运营商:
太空探索技术公司
运营商所在国:
美国
制造商(研发单位):
太空探索技术公司
制造商所在国:
美国
使用方式:
暂无
卫星简介
Starlink 计划是 SpaceX 推出的全球卫星互联网项目,通过发射低轨道卫星,为全球尤其是偏远地区提供高速、低延迟的互联网服务。自 2019 年起,Starlink 已部署数千颗卫星,旨在缩小全球数字鸿沟,推动互联网普及。该项目还为军事、航空等行业提供通信支持,带来广泛经济效益。
2D轨道图
3D轨道图
轨道高度分析图
轨道倾角分析图
轨道综合分析图
查看轨道综合分析图